When you browse on this site, cookies collect data to enhance your experience and personalize the content and advertising you see.
Visit our Privacy Policy to learn more. By continuing to use the site, you agree to this use of cookies and data.
  • En España
  • Lista de países
  • Para 7 días
  • Temperatura del agua
  • El tiempo en el mapa
  • Informadores
  • user-avatar
    Iniciar sesión

    Tiempo cada hora Purranque

    Hoy, 26 Enero, Domingo

    Tiempo Temperatura Precipitaciones Viento Presión Humedad
    00:00 +15°C° 0 mm 1 mps 754 mmHg 98%
    01:00 +14°C° 0 mm 1 mps 753 mmHg 98%
    02:00 +14°C° 0 mm 1 mps 753 mmHg 98%
    03:00 +14°C° 0 mm 1 mps 754 mmHg 98%
    04:00 +13°C° 0 mm 1 mps 754 mmHg 97%
    05:00 +14°C° 0 mm 1 mps 754 mmHg 94%
    06:00 +15°C° 0 mm 1 mps 754 mmHg 91%
    07:00 +15°C° 0 mm 1 mps 755 mmHg 88%
    08:00 +18°C° 0 mm 1 mps 755 mmHg 78%
    09:00 +20°C° 0 mm 1 mps 755 mmHg 68%
    10:00 +20°C° 0 mm 2 mps 755 mmHg 58%
    11:00 +23°C° 0 mm 2 mps 755 mmHg 51%
    12:00 +24°C° 0 mm 2 mps 755 mmHg 44%
    13:00 +25°C° 0 mm 2 mps 754 mmHg 38%
    14:00 +25°C° 0 mm 2 mps 754 mmHg 37%
    15:00 +25°C° 0 mm 2 mps 754 mmHg 36%
    16:00 +25°C° 0 mm 3 mps 754 mmHg 35%
    17:00 +23°C° 0 mm 2 mps 754 mmHg 40%
    18:00 +19°C° 0 mm 2 mps 754 mmHg 46%
    19:00 +17°C° 0 mm 2 mps 754 mmHg 51%
    20:00 +15°C° 0 mm 1 mps 754 mmHg 60%
    21:00 +13°C° 0 mm 1 mps 755 mmHg 69%
    22:00 +11°C° 0 mm 1 mps 755 mmHg 77%
    23:00 +10°C° 0 mm 1 mps 755 mmHg 80%

    Mañana, 27 Enero, Lunes

    Tiempo Temperatura Precipitaciones Viento Presión Humedad
    00:00 +9°C° 0 mm 1 mps 754 mmHg 82%
    01:00 +8°C° 0 mm 0 mps 754 mmHg 85%
    02:00 +7°C° 0 mm 0 mps 754 mmHg 85%
    03:00 +7°C° 0 mm 0 mps 754 mmHg 85%
    04:00 +7°C° 0 mm 0 mps 754 mmHg 85%
    05:00 +9°C° 0 mm 0 mps 753 mmHg 77%
    06:00 +11°C° 0 mm 0 mps 753 mmHg 68%
    07:00 +13°C° 0 mm 0 mps 753 mmHg 60%
    08:00 +16°C° 0 mm 0 mps 753 mmHg 51%
    09:00 +21°C° 0 mm 1 mps 753 mmHg 41%
    10:00 +25°C° 0 mm 1 mps 752 mmHg 31%
    11:00 +26°C° 0 mm 1 mps 752 mmHg 32%
    12:00 +27°C° 0 mm 1 mps 752 mmHg 33%
    13:00 +28°C° 0 mm 2 mps 752 mmHg 34%
    14:00 +28°C° 0 mm 2 mps 752 mmHg 38%
    15:00 +27°C° 0 mm 2 mps 751 mmHg 42%
    16:00 +27°C° 0 mm 2 mps 751 mmHg 45%
    17:00 +25°C° 0 mm 2 mps 751 mmHg 54%
    18:00 +23°C° 0 mm 2 mps 751 mmHg 62%
    19:00 +21°C° 0 mm 1 mps 751 mmHg 71%
    20:00 +20°C° 0 mm 1 mps 751 mmHg 76%
    21:00 +19°C° 0 mm 1 mps 751 mmHg 82%
    22:00 +15°C° 0 mm 0 mps 750 mmHg 88%
    23:00 +15°C° 0 mm 0 mps 750 mmHg 89%

    Pasado mañana, 28 Enero, Martes

    Tiempo Temperatura Precipitaciones Viento Presión Humedad
    00:00 +15°C° 0 mm 0 mps 750 mmHg 90%
    01:00 +15°C° 0 mm 0 mps 749 mmHg 91%
    02:00 +15°C° 0.2 mm 0 mps 749 mmHg 94%
    03:00 +15°C° 0.2 mm 0 mps 749 mmHg 96%
    04:00 +15°C° 0.2 mm 0 mps 749 mmHg 98%
    05:00 +16°C° 0.6 mm 1 mps 749 mmHg 98%
    06:00 +16°C° 0.6 mm 1 mps 749 mmHg 98%
    07:00 +15°C° 0.6 mm 2 mps 749 mmHg 98%
    08:00 +15°C° 0.4 mm 2 mps 749 mmHg 94%
    09:00 +15°C° 0.4 mm 1 mps 749 mmHg 91%
    10:00 +15°C° 0.4 mm 1 mps 749 mmHg 88%
    11:00 +17°C° 0.1 mm 2 mps 750 mmHg 75%
    12:00 +18°C° 0.1 mm 2 mps 750 mmHg 62%
    13:00 +20°C° 0.1 mm 2 mps 750 mmHg 49%
    14:00 +19°C° 0 mm 3 mps 750 mmHg 50%
    15:00 +18°C° 0 mm 3 mps 750 mmHg 51%
    16:00 +18°C° 0 mm 3 mps 750 mmHg 52%
    17:00 +16°C° 0 mm 3 mps 751 mmHg 56%
    18:00 +14°C° 0 mm 3 mps 751 mmHg 60%
    19:00 +14°C° 0 mm 2 mps 751 mmHg 64%
    20:00 +13°C° 0 mm 2 mps 752 mmHg 69%
    21:00 +12°C° 0 mm 2 mps 752 mmHg 73%
    22:00 +10°C° 0 mm 2 mps 753 mmHg 78%
    23:00 +9°C° 0 mm 2 mps 753 mmHg 80%

    29 Enero, Miércoles

    Tiempo Temperatura Precipitaciones Viento Presión Humedad
    00:00 +9°C° 0 mm 2 mps 753 mmHg 82%
    01:00 +9°C° 0 mm 2 mps 754 mmHg 85%
    02:00 +8°C° 0 mm 2 mps 754 mmHg 87%
    03:00 +7°C° 0 mm 2 mps 754 mmHg 89%
    04:00 +7°C° 0 mm 2 mps 754 mmHg 91%
    05:00 +8°C° 0 mm 2 mps 754 mmHg 83%
    06:00 +9°C° 0 mm 2 mps 755 mmHg 75%
    07:00 +10°C° 0 mm 2 mps 755 mmHg 67%
    08:00 +13°C° 0 mm 2 mps 755 mmHg 60%
    09:00 +15°C° 0 mm 2 mps 755 mmHg 54%
    10:00 +16°C° 0 mm 2 mps 755 mmHg 47%
    11:00 +17°C° 0 mm 2 mps 755 mmHg 43%
    12:00 +18°C° 0 mm 2 mps 755 mmHg 40%
    13:00 +20°C° 0 mm 2 mps 755 mmHg 36%
    14:00 +19°C° 0 mm 2 mps 755 mmHg 38%
    15:00 +19°C° 0 mm 3 mps 754 mmHg 40%
    16:00 +19°C° 0 mm 3 mps 754 mmHg 42%
    17:00 +17°C° 0 mm 3 mps 754 mmHg 49%
    18:00 +15°C° 0 mm 2 mps 755 mmHg 56%
    19:00 +13°C° 0 mm 2 mps 755 mmHg 63%
    20:00 +12°C° 0 mm 2 mps 755 mmHg 71%
    21:00 +9°C° 0 mm 2 mps 755 mmHg 78%
    22:00 +9°C° 0 mm 1 mps 755 mmHg 86%
    23:00 +8°C° 0 mm 1 mps 755 mmHg 89%

    30 Enero, Jueves

    Tiempo Temperatura Precipitaciones Viento Presión Humedad
    00:00 +8°C° 0 mm 1 mps 755 mmHg 93%
    01:00 +7°C° 0 mm 1 mps 755 mmHg 96%
    02:00 +7°C° 0 mm 1 mps 754 mmHg 96%
    03:00 +6°C° 0 mm 0 mps 754 mmHg 97%
    04:00 +6°C° 0 mm 0 mps 754 mmHg 97%
    05:00 +7°C° 0 mm 0 mps 753 mmHg 90%
    06:00 +9°C° 0 mm 0 mps 753 mmHg 82%
    07:00 +11°C° 0 mm 0 mps 753 mmHg 74%
    08:00 +15°C° 0 mm 1 mps 753 mmHg 63%
    09:00 +18°C° 0 mm 1 mps 753 mmHg 51%
    10:00 +21°C° 0 mm 1 mps 753 mmHg 40%
    11:00 +22°C° 0 mm 1 mps 752 mmHg 40%
    12:00 +23°C° 0 mm 2 mps 752 mmHg 41%
    13:00 +24°C° 0 mm 2 mps 752 mmHg 41%
    14:00 +24°C° 0 mm 2 mps 752 mmHg 44%
    15:00 +24°C° 0 mm 2 mps 752 mmHg 47%
    16:00 +24°C° 0 mm 2 mps 752 mmHg 49%
    17:00 +21°C° 0 mm 2 mps 752 mmHg 58%
    18:00 +20°C° 0 mm 1 mps 752 mmHg 66%
    19:00 +19°C° 0 mm 1 mps 752 mmHg 75%
    20:00 +18°C° 0 mm 1 mps 752 mmHg 79%
    21:00 +15°C° 0 mm 0 mps 752 mmHg 83%
    22:00 +14°C° 0 mm 0 mps 752 mmHg 86%
    23:00 +14°C° 0 mm 0 mps 752 mmHg 88%

    31 Enero, Viernes

    Tiempo Temperatura Precipitaciones Viento Presión Humedad
    00:00 +14°C° 0 mm 0 mps 752 mmHg 90%
    01:00 +14°C° 0 mm 0 mps 752 mmHg 92%
    02:00 +13°C° 0 mm 0 mps 752 mmHg 93%
    03:00 +13°C° 0 mm 0 mps 752 mmHg 95%
    04:00 +13°C° 0 mm 0 mps 752 mmHg 96%
    05:00 +13°C° 0 mm 0 mps 752 mmHg 94%
    06:00 +14°C° 0 mm 0 mps 752 mmHg 91%
    07:00 +15°C° 0 mm 0 mps 752 mmHg 89%
    08:00 +17°C° 0 mm 0 mps 752 mmHg 76%
    09:00 +22°C° 0 mm 1 mps 752 mmHg 64%
    10:00 +24°C° 0 mm 1 mps 752 mmHg 52%
    11:00 +25°C° 0 mm 1 mps 751 mmHg 45%
    12:00 +27°C° 0 mm 1 mps 751 mmHg 38%
    13:00 +28°C° 0 mm 1 mps 751 mmHg 31%
    14:00 +27°C° 0 mm 2 mps 751 mmHg 32%
    15:00 +27°C° 0 mm 2 mps 751 mmHg 33%
    16:00 +27°C° 0 mm 2 mps 750 mmHg 34%
    17:00 +24°C° 0 mm 2 mps 750 mmHg 45%
    18:00 +22°C° 0 mm 1 mps 750 mmHg 56%
    19:00 +20°C° 0 mm 1 mps 750 mmHg 67%
    20:00 +18°C° 0 mm 1 mps 750 mmHg 76%
    21:00 +16°C° 0 mm 1 mps 750 mmHg 84%
    22:00 +13°C° 0 mm 0 mps 750 mmHg 93%
    23:00 +13°C° 0 mm 0 mps 750 mmHg 94%
    Mostrar más